Year,Month,Day,Hour,Minute,Value (Times are PST for temperature in C)
2012,08,05,00,00,22.70
2012,08,05,00,01,22.70
2012,08,05,00,02,22.70
2012,08,05,00,04,22.70
2012,08,05,00,05,22.70
2012,08,05,00,06,22.60
2012,08,05,00,08,22.60
2012,08,05,00,09,22.60
2012,08,05,00,10,22.60
2012,08,05,00,11,22.50
2012,08,05,00,13,22.40
2012,08,05,00,15,22.40
2012,08,05,00,16,22.30
2012,08,05,00,17,22.30
2012,08,05,00,19,22.20
2012,08,05,00,20,22.20
2012,08,05,00,21,22.20
2012,08,05,00,22,22.20
2012,08,05,00,24,22.10
2012,08,05,00,25,22.10
2012,08,05,00,26,22.10
2012,08,05,00,27,22.00
2012,08,05,00,29,21.90
2012,08,05,00,31,21.90
2012,08,05,00,32,21.80
2012,08,05,00,33,21.80
2012,08,05,00,35,21.80
2012,08,05,00,36,21.70
2012,08,05,00,37,21.70
2012,08,05,00,39,21.70
2012,08,05,00,40,21.60
2012,08,05,00,41,21.60
2012,08,05,00,43,21.60
2012,08,05,00,44,21.60
2012,08,05,00,45,21.50
2012,08,05,00,47,21.40
2012,08,05,00,48,21.40
2012,08,05,00,50,21.40
2012,08,05,00,51,21.30
2012,08,05,00,52,21.30
2012,08,05,00,53,21.30
2012,08,05,00,55,21.30
2012,08,05,00,56,21.30
2012,08,05,00,57,21.30
2012,08,05,00,59,21.20
2012,08,05,01,00,21.20
2012,08,05,01,02,21.20
2012,08,05,01,03,21.20
2012,08,05,01,04,21.20
2012,08,05,01,06,21.20
2012,08,05,01,08,21.20
2012,08,05,01,09,21.10
2012,08,05,01,11,21.20
2012,08,05,01,12,21.10
2012,08,05,01,13,21.10
2012,08,05,01,15,21.10
2012,08,05,01,16,21.10
2012,08,05,01,18,21.10
2012,08,05,01,19,21.10
2012,08,05,01,20,21.00
2012,08,05,01,22,20.90
2012,08,05,01,23,20.90
2012,08,05,01,24,20.90
2012,08,05,01,25,20.90
2012,08,05,01,27,20.80
2012,08,05,01,28,20.80
2012,08,05,01,30,20.80
2012,08,05,01,31,20.70
2012,08,05,01,32,20.70
2012,08,05,01,34,20.60
2012,08,05,01,35,20.60
2012,08,05,01,37,20.50
2012,08,05,01,38,20.50
2012,08,05,01,39,20.40
2012,08,05,01,41,20.40
2012,08,05,01,42,20.40
2012,08,05,01,43,20.40
2012,08,05,01,44,20.40
2012,08,05,01,46,20.30
2012,08,05,01,47,20.30
2012,08,05,01,48,20.30
2012,08,05,01,49,20.30
2012,08,05,01,50,20.30
2012,08,05,01,51,20.30
2012,08,05,01,52,20.30
2012,08,05,01,54,20.30
2012,08,05,01,55,20.20
2012,08,05,01,57,20.20
2012,08,05,01,59,20.20
2012,08,05,02,00,20.20
2012,08,05,02,01,20.20
2012,08,05,02,02,20.20
2012,08,05,02,03,20.20
2012,08,05,02,05,20.10
2012,08,05,02,06,20.10
2012,08,05,02,07,20.10
2012,08,05,02,09,20.10
2012,08,05,02,10,20.10
2012,08,05,02,11,20.10
2012,08,05,02,13,20.00
2012,08,05,02,14,20.00
2012,08,05,02,15,20.00
2012,08,05,02,17,19.90
2012,08,05,02,18,19.90
2012,08,05,02,19,19.90
2012,08,05,02,20,19.90
2012,08,05,02,22,19.80
2012,08,05,02,24,19.80
2012,08,05,02,26,19.70
2012,08,05,02,27,19.70
2012,08,05,02,29,19.70
2012,08,05,02,30,19.60
2012,08,05,02,31,19.60
2012,08,05,02,33,19.60
2012,08,05,02,34,19.60
2012,08,05,02,36,19.50
2012,08,05,02,38,19.40
2012,08,05,02,39,19.40
2012,08,05,02,41,19.40
2012,08,05,02,42,19.30
2012,08,05,02,43,19.30
2012,08,05,02,44,19.30
2012,08,05,02,45,19.30
2012,08,05,02,46,19.30
2012,08,05,02,48,19.30
2012,08,05,02,49,19.30
2012,08,05,02,50,19.30
2012,08,05,02,52,19.20
2012,08,05,02,53,19.20
2012,08,05,02,54,19.20
2012,08,05,02,56,19.20
2012,08,05,02,57,19.20
2012,08,05,02,58,19.10
2012,08,05,03,00,19.10
2012,08,05,03,01,19.10
2012,08,05,03,02,19.10
2012,08,05,03,04,19.00
2012,08,05,03,05,19.00
2012,08,05,03,06,19.00
2012,08,05,03,08,18.90
2012,08,05,03,09,18.90
2012,08,05,03,11,18.90
2012,08,05,03,12,18.90
2012,08,05,03,13,18.90
2012,08,05,03,15,18.90
2012,08,05,03,16,18.90
2012,08,05,03,17,18.80
2012,08,05,03,18,18.80
2012,08,05,03,20,18.80
2012,08,05,03,21,18.80
2012,08,05,03,22,18.80
2012,08,05,03,24,18.80
2012,08,05,03,25,18.80
2012,08,05,03,26,18.80
2012,08,05,03,27,18.70
2012,08,05,03,28,18.70
2012,08,05,03,29,18.70
2012,08,05,03,30,18.70
2012,08,05,03,32,18.60
2012,08,05,03,33,18.60
2012,08,05,03,35,18.50
2012,08,05,03,36,18.40
2012,08,05,03,37,18.40
2012,08,05,03,39,18.30
2012,08,05,03,40,18.30
2012,08,05,03,41,18.30
2012,08,05,03,43,18.30
2012,08,05,03,44,18.20
2012,08,05,03,45,18.20
2012,08,05,03,47,18.20
2012,08,05,03,48,18.20
2012,08,05,03,49,18.20
2012,08,05,03,51,18.10
2012,08,05,03,52,18.10
2012,08,05,03,53,18.10
2012,08,05,03,55,18.10
2012,08,05,03,56,18.00
2012,08,05,03,58,18.00
2012,08,05,03,59,17.90
2012,08,05,04,00,17.90
2012,08,05,04,01,17.90
2012,08,05,04,02,17.90
2012,08,05,04,03,17.90
2012,08,05,04,04,17.90
2012,08,05,04,06,17.80
2012,08,05,04,08,17.80
2012,08,05,04,09,17.80
2012,08,05,04,10,17.80
2012,08,05,04,11,17.70
2012,08,05,04,12,17.70
2012,08,05,04,13,17.70
2012,08,05,04,15,17.70
2012,08,05,04,16,17.70
2012,08,05,04,18,17.60
2012,08,05,04,19,17.60
2012,08,05,04,20,17.60
2012,08,05,04,22,17.60
2012,08,05,04,23,17.60
2012,08,05,04,24,17.60
2012,08,05,04,26,17.50
2012,08,05,04,27,17.50
2012,08,05,04,28,17.40
2012,08,05,04,30,17.40
2012,08,05,04,31,17.40
2012,08,05,04,33,17.40
2012,08,05,04,34,17.40
2012,08,05,04,35,17.40
2012,08,05,04,36,17.40
2012,08,05,04,38,17.40
2012,08,05,04,39,17.30
2012,08,05,04,41,17.30
2012,08,05,04,43,17.30
2012,08,05,04,45,17.30
2012,08,05,04,46,17.30
2012,08,05,04,47,17.30
2012,08,05,04,49,17.30
2012,08,05,04,50,17.30
2012,08,05,04,52,17.30
2012,08,05,04,53,17.30
2012,08,05,04,54,17.30
2012,08,05,04,55,17.20
2012,08,05,04,56,17.20
2012,08,05,04,58,17.20
2012,08,05,05,00,17.20
2012,08,05,05,01,17.20
2012,08,05,05,02,17.20
2012,08,05,05,04,17.20
2012,08,05,05,05,17.20
2012,08,05,05,06,17.20
2012,08,05,05,07,17.20
2012,08,05,05,08,17.20
2012,08,05,05,09,17.10
2012,08,05,05,11,17.10
2012,08,05,05,12,17.10
2012,08,05,05,14,17.10
2012,08,05,05,15,17.10
2012,08,05,05,17,17.10
2012,08,05,05,18,17.10
2012,08,05,05,19,17.10
2012,08,05,05,20,17.00
2012,08,05,05,21,17.00
2012,08,05,05,22,17.00
2012,08,05,05,23,17.00
2012,08,05,05,24,17.00
2012,08,05,05,25,17.00
2012,08,05,05,26,17.00
2012,08,05,05,27,16.90
2012,08,05,05,28,17.00
2012,08,05,05,29,16.90
2012,08,05,05,30,16.90
2012,08,05,05,31,16.90
2012,08,05,05,32,16.90
2012,08,05,05,33,16.90
2012,08,05,05,34,16.90
2012,08,05,05,35,16.90
2012,08,05,05,37,16.90
2012,08,05,05,38,16.90
2012,08,05,05,39,16.90
2012,08,05,05,41,16.90
2012,08,05,05,42,16.90
2012,08,05,05,43,16.90
2012,08,05,05,44,16.90
2012,08,05,05,45,16.90
2012,08,05,05,46,16.90
2012,08,05,05,47,16.90
2012,08,05,05,48,16.90
2012,08,05,05,49,16.80
2012,08,05,05,50,16.80
2012,08,05,05,51,16.80
2012,08,05,05,52,16.80
2012,08,05,05,53,16.80
2012,08,05,05,54,16.80
2012,08,05,05,55,16.80
2012,08,05,05,56,16.80
2012,08,05,05,57,16.80
2012,08,05,05,58,16.80
2012,08,05,06,00,16.80
2012,08,05,06,02,16.80
2012,08,05,06,04,16.70
2012,08,05,06,05,16.70
2012,08,05,06,06,16.70
2012,08,05,06,07,16.70
2012,08,05,06,08,16.70
2012,08,05,06,09,16.70
2012,08,05,06,10,16.70
2012,08,05,06,11,16.70
2012,08,05,06,12,16.70
2012,08,05,06,13,16.60
2012,08,05,06,14,16.60
2012,08,05,06,16,16.60
2012,08,05,06,17,16.60
2012,08,05,06,18,16.60
2012,08,05,06,19,16.60
2012,08,05,06,20,16.60
2012,08,05,06,21,16.60
2012,08,05,06,22,16.60
2012,08,05,06,24,16.50
2012,08,05,06,25,16.60
2012,08,05,06,26,16.50
2012,08,05,06,28,16.50
2012,08,05,06,29,16.50
2012,08,05,06,30,16.50
2012,08,05,06,31,16.50
2012,08,05,06,32,16.50
2012,08,05,06,33,16.50
2012,08,05,06,34,16.40
2012,08,05,06,36,16.40
2012,08,05,06,37,16.40
2012,08,05,06,38,16.40
2012,08,05,06,40,16.40
2012,08,05,06,41,16.50
2012,08,05,06,42,16.50
2012,08,05,06,44,16.50
2012,08,05,06,45,16.50
2012,08,05,06,46,16.50
2012,08,05,06,48,16.60
2012,08,05,06,49,16.60
2012,08,05,06,51,16.60
2012,08,05,06,52,16.70
2012,08,05,06,53,16.70
2012,08,05,06,54,16.70
2012,08,05,06,55,16.70
2012,08,05,06,56,16.80
2012,08,05,06,57,16.80
2012,08,05,06,59,16.90
2012,08,05,07,00,16.90
2012,08,05,07,01,17.00
2012,08,05,07,02,17.10
2012,08,05,07,04,17.20
2012,08,05,07,05,17.20
2012,08,05,07,07,17.30
2012,08,05,07,08,17.40
2012,08,05,07,09,17.40
2012,08,05,07,10,17.50
2012,08,05,07,11,17.60
2012,08,05,07,12,17.60
2012,08,05,07,13,17.70
2012,08,05,07,15,17.80
2012,08,05,07,16,17.80
2012,08,05,07,17,17.90
2012,08,05,07,18,17.90
2012,08,05,07,19,17.90
2012,08,05,07,20,17.90
2012,08,05,07,21,17.90
2012,08,05,07,23,18.00
2012,08,05,07,24,18.00
2012,08,05,07,25,18.10
2012,08,05,07,27,18.10
2012,08,05,07,28,18.10
2012,08,05,07,29,18.10
2012,08,05,07,30,18.10
2012,08,05,07,32,18.20
2012,08,05,07,33,18.30
2012,08,05,07,34,18.30
2012,08,05,07,35,18.40
2012,08,05,07,36,18.60
2012,08,05,07,38,18.80
2012,08,05,07,39,18.80
2012,08,05,07,40,18.90
2012,08,05,07,41,19.00
2012,08,05,07,42,19.10
2012,08,05,07,43,19.20
2012,08,05,07,44,19.20
2012,08,05,07,46,19.30
2012,08,05,07,47,19.30
2012,08,05,07,48,19.40
2012,08,05,07,50,19.50
2012,08,05,07,51,19.60
2012,08,05,07,52,19.60
2012,08,05,07,54,19.70
2012,08,05,07,56,19.70
2012,08,05,07,58,19.80
2012,08,05,08,00,19.90
2012,08,05,08,02,20.10
2012,08,05,08,04,20.30
2012,08,05,08,06,20.50
2012,08,05,08,07,20.60
2012,08,05,08,09,20.70
2012,08,05,08,10,20.80
2012,08,05,08,11,20.80
2012,08,05,08,13,20.90
2012,08,05,08,14,20.90
2012,08,05,08,15,20.90
2012,08,05,08,17,21.10
2012,08,05,08,18,21.10
2012,08,05,08,19,21.20
2012,08,05,08,20,21.20
2012,08,05,08,21,21.20
2012,08,05,08,22,21.20
2012,08,05,08,23,21.20
2012,08,05,08,25,21.20
2012,08,05,08,26,21.20
2012,08,05,08,27,21.30
2012,08,05,08,28,21.20
2012,08,05,08,29,21.20
2012,08,05,08,30,21.30
2012,08,05,08,31,21.30
2012,08,05,08,33,21.40
2012,08,05,08,34,21.40
2012,08,05,08,35,21.50
2012,08,05,08,37,21.50
2012,08,05,08,38,21.60
2012,08,05,08,40,21.60
2012,08,05,08,41,21.60
2012,08,05,08,42,21.60
2012,08,05,08,43,21.60
2012,08,05,08,45,21.70
2012,08,05,08,46,21.70
2012,08,05,08,47,21.70
2012,08,05,08,49,21.80
2012,08,05,08,50,21.80
2012,08,05,08,51,21.80
2012,08,05,08,52,21.80
2012,08,05,08,53,21.90
2012,08,05,08,54,21.90
2012,08,05,08,55,21.90
2012,08,05,08,56,22.00
2012,08,05,08,57,22.10
2012,08,05,08,58,22.10
2012,08,05,08,59,22.20
2012,08,05,09,01,22.30
2012,08,05,09,02,22.40
2012,08,05,09,04,22.50
2012,08,05,09,05,22.60
2012,08,05,09,06,22.70
2012,08,05,09,08,22.90
2012,08,05,09,09,22.90
2012,08,05,09,10,23.00
2012,08,05,09,12,23.10
2012,08,05,09,13,23.10
2012,08,05,09,14,23.10
2012,08,05,09,16,23.20
2012,08,05,09,17,23.20
2012,08,05,09,18,23.30
2012,08,05,09,19,23.30
2012,08,05,09,20,23.40
2012,08,05,09,21,23.40
2012,08,05,09,22,23.40
2012,08,05,09,23,23.40
2012,08,05,09,24,23.50
2012,08,05,09,25,23.50
2012,08,05,09,27,23.60
2012,08,05,09,28,23.60
2012,08,05,09,29,23.70
2012,08,05,09,30,23.70
2012,08,05,09,31,23.70
2012,08,05,09,33,23.80
2012,08,05,09,34,23.80
2012,08,05,09,36,23.80
2012,08,05,09,37,23.80
2012,08,05,09,38,23.90
2012,08,05,09,40,23.90
2012,08,05,09,41,24.00
2012,08,05,09,42,24.10
2012,08,05,09,43,24.10
2012,08,05,09,44,24.10
2012,08,05,09,45,24.10
2012,08,05,09,46,24.10
2012,08,05,09,47,24.20
2012,08,05,09,48,24.20
2012,08,05,09,49,24.30
2012,08,05,09,50,24.30
2012,08,05,09,52,24.40
2012,08,05,09,53,24.40
2012,08,05,09,54,24.50
2012,08,05,09,55,24.50
2012,08,05,09,56,24.60
2012,08,05,09,58,24.60
2012,08,05,09,59,24.60
2012,08,05,10,00,24.70
2012,08,05,10,01,24.70
2012,08,05,10,02,24.70
2012,08,05,10,03,24.70
2012,08,05,10,04,24.80
2012,08,05,10,05,24.80
2012,08,05,10,06,24.80
2012,08,05,10,07,24.90
2012,08,05,10,08,24.90
2012,08,05,10,09,24.90
2012,08,05,10,10,25.00
2012,08,05,10,11,25.00
2012,08,05,10,12,25.10
2012,08,05,10,13,25.10
2012,08,05,10,14,25.10
2012,08,05,10,15,25.10
2012,08,05,10,16,25.10
2012,08,05,10,17,25.20
2012,08,05,10,18,25.20
2012,08,05,10,19,25.20
2012,08,05,10,20,25.20
2012,08,05,10,21,25.20
2012,08,05,10,22,25.20
2012,08,05,10,23,25.30
2012,08,05,10,24,25.30
2012,08,05,10,25,25.30
2012,08,05,10,26,25.40
2012,08,05,10,27,25.40
2012,08,05,10,28,25.40
2012,08,05,10,29,25.50
2012,08,05,10,30,25.50
2012,08,05,10,31,25.60
2012,08,05,10,32,25.60
2012,08,05,10,33,25.60
2012,08,05,10,34,25.60
2012,08,05,10,35,25.60
2012,08,05,10,36,25.70
2012,08,05,10,37,25.70
2012,08,05,10,38,25.70
2012,08,05,10,39,25.80
2012,08,05,10,40,25.80
2012,08,05,10,41,25.90
2012,08,05,10,42,25.90
2012,08,05,10,43,25.90
2012,08,05,10,44,25.90
2012,08,05,10,45,26.00
2012,08,05,10,46,26.10
2012,08,05,10,47,26.10
2012,08,05,10,48,26.10
2012,08,05,10,49,26.20
2012,08,05,10,50,26.20
2012,08,05,10,51,26.30
2012,08,05,10,52,26.30
2012,08,05,10,53,26.30
2012,08,05,10,54,26.40
2012,08,05,10,55,26.50
2012,08,05,10,56,26.60
2012,08,05,10,57,26.60
2012,08,05,10,58,26.70
2012,08,05,10,59,26.70
2012,08,05,11,00,26.80
2012,08,05,11,01,26.80
2012,08,05,11,02,26.90
2012,08,05,11,03,26.90
2012,08,05,11,05,27.20
2012,08,05,11,06,27.20
2012,08,05,11,07,27.30
2012,08,05,11,08,27.30
2012,08,05,11,09,27.40
2012,08,05,11,10,27.40
2012,08,05,11,11,27.60
2012,08,05,11,12,27.70
2012,08,05,11,13,27.70
2012,08,05,11,14,27.80
2012,08,05,11,15,27.80
2012,08,05,11,16,27.90
2012,08,05,11,17,28.00
2012,08,05,11,18,28.10
2012,08,05,11,19,28.10
2012,08,05,11,20,28.20
2012,08,05,11,21,28.20
2012,08,05,11,22,28.20
2012,08,05,11,23,28.20
2012,08,05,11,24,28.30
2012,08,05,11,25,28.30
2012,08,05,11,26,28.30
2012,08,05,11,27,28.30
2012,08,05,11,28,28.30
2012,08,05,11,29,28.40
2012,08,05,11,30,28.40
2012,08,05,11,31,28.40
2012,08,05,11,32,28.50
2012,08,05,11,33,28.60
2012,08,05,11,34,28.60
2012,08,05,11,35,28.70
2012,08,05,11,37,28.70
2012,08,05,11,38,28.70
2012,08,05,11,40,28.90
2012,08,05,11,41,28.90
2012,08,05,11,42,28.90
2012,08,05,11,44,29.00
2012,08,05,11,45,29.10
2012,08,05,11,46,29.10
2012,08,05,11,48,29.10
2012,08,05,11,49,29.20
2012,08,05,11,50,29.20
2012,08,05,11,52,29.30
2012,08,05,11,53,29.40
2012,08,05,11,54,29.40
2012,08,05,11,55,29.50
2012,08,05,11,56,29.60
2012,08,05,11,57,29.70
2012,08,05,11,58,29.70
2012,08,05,11,59,29.70
2012,08,05,12,01,29.70
2012,08,05,12,02,29.70
2012,08,05,12,03,29.70
2012,08,05,12,04,29.70
2012,08,05,12,05,29.70
2012,08,05,12,06,29.80
2012,08,05,12,07,29.80
2012,08,05,12,08,29.90
2012,08,05,12,09,29.90
2012,08,05,12,10,30.10
2012,08,05,12,11,30.10
2012,08,05,12,12,30.20
2012,08,05,12,13,30.20
2012,08,05,12,14,30.20
2012,08,05,12,15,30.30
2012,08,05,12,16,30.30
2012,08,05,12,17,30.30
2012,08,05,12,18,30.40
2012,08,05,12,19,30.40
2012,08,05,12,20,30.50
2012,08,05,12,21,30.60
2012,08,05,12,22,30.60
2012,08,05,12,23,30.60
2012,08,05,12,24,30.70
2012,08,05,12,25,30.70
2012,08,05,12,26,30.80
2012,08,05,12,27,30.80
2012,08,05,12,28,30.80
2012,08,05,12,29,30.90
2012,08,05,12,30,30.90
2012,08,05,12,31,31.00
2012,08,05,12,32,31.00
2012,08,05,12,33,31.10
2012,08,05,12,34,31.10
2012,08,05,12,35,31.20
2012,08,05,12,36,31.20
2012,08,05,12,37,31.20
2012,08,05,12,38,31.30
2012,08,05,12,39,31.30
2012,08,05,12,40,31.30
2012,08,05,12,41,31.30
2012,08,05,12,42,31.30
2012,08,05,12,43,31.40
2012,08,05,12,44,31.40
2012,08,05,12,45,31.40
2012,08,05,12,46,31.40
2012,08,05,12,47,31.40
2012,08,05,12,48,31.40
2012,08,05,12,49,31.50
2012,08,05,12,50,31.50
2012,08,05,12,51,31.60
2012,08,05,12,52,31.60
2012,08,05,12,53,31.70
2012,08,05,12,54,31.70
2012,08,05,12,55,31.70
2012,08,05,12,56,31.80
2012,08,05,12,57,31.90
2012,08,05,12,58,31.90
2012,08,05,12,59,31.90
2012,08,05,13,00,32.00
2012,08,05,13,01,32.00
2012,08,05,13,02,32.10
2012,08,05,13,03,32.10
2012,08,05,13,04,32.00
2012,08,05,13,05,32.00
2012,08,05,13,06,32.00
2012,08,05,13,07,32.00
2012,08,05,13,08,31.90
2012,08,05,13,09,31.90
2012,08,05,13,10,31.90
2012,08,05,13,11,31.90
2012,08,05,13,12,31.90
2012,08,05,13,13,31.80
2012,08,05,13,14,31.80
2012,08,05,13,15,31.80
2012,08,05,13,16,31.80
2012,08,05,13,17,31.80
2012,08,05,13,18,31.80
2012,08,05,13,19,31.80
2012,08,05,13,20,31.80
2012,08,05,13,21,31.90
2012,08,05,13,22,31.90
2012,08,05,13,23,31.90
2012,08,05,13,24,32.00
2012,08,05,13,25,32.00
2012,08,05,13,26,32.10
2012,08,05,13,27,32.10
2012,08,05,13,28,32.10
2012,08,05,13,29,32.10
2012,08,05,13,30,32.10
2012,08,05,13,31,32.10
2012,08,05,13,32,32.10
2012,08,05,13,33,32.10
2012,08,05,13,34,32.10
2012,08,05,13,35,32.10
2012,08,05,13,36,32.10
2012,08,05,13,37,32.10
2012,08,05,13,38,32.10
2012,08,05,13,39,32.10
2012,08,05,13,40,32.10
2012,08,05,13,41,32.20
2012,08,05,13,42,32.30
2012,08,05,13,43,32.30
2012,08,05,13,44,32.30
2012,08,05,13,45,32.40
2012,08,05,13,46,32.60
2012,08,05,13,47,32.70
2012,08,05,13,48,32.70
2012,08,05,13,49,32.80
2012,08,05,13,50,32.80
2012,08,05,13,51,32.90
2012,08,05,13,52,32.90
2012,08,05,13,53,33.00
2012,08,05,13,54,33.10
2012,08,05,13,55,33.10
2012,08,05,13,56,33.20
2012,08,05,13,57,33.20
2012,08,05,13,58,33.30
2012,08,05,13,59,33.30
2012,08,05,14,00,33.30
2012,08,05,14,01,33.30
2012,08,05,14,02,33.40
2012,08,05,14,03,33.40
2012,08,05,14,04,33.50
2012,08,05,14,05,33.60
2012,08,05,14,06,33.60
2012,08,05,14,07,33.60
2012,08,05,14,08,33.60
2012,08,05,14,09,33.60
2012,08,05,14,10,33.50
2012,08,05,14,11,33.50
2012,08,05,14,12,33.40
2012,08,05,14,13,33.40
2012,08,05,14,14,33.30
2012,08,05,14,15,33.30
2012,08,05,14,16,33.20
2012,08,05,14,17,33.20
2012,08,05,14,18,33.20
2012,08,05,14,19,33.20
2012,08,05,14,20,33.20
2012,08,05,14,21,33.20
2012,08,05,14,22,33.30
2012,08,05,14,23,33.30
2012,08,05,14,24,33.30
2012,08,05,14,26,33.30
2012,08,05,14,27,33.30
2012,08,05,14,28,33.40
2012,08,05,14,29,33.40
2012,08,05,14,30,33.50
2012,08,05,14,31,33.50
2012,08,05,14,32,33.50
2012,08,05,14,33,33.50
2012,08,05,14,34,33.60
2012,08,05,14,35,33.60
2012,08,05,14,36,33.60
2012,08,05,14,37,33.60
2012,08,05,14,38,33.70
2012,08,05,14,39,33.80
2012,08,05,14,40,33.80
2012,08,05,14,41,33.80
2012,08,05,14,42,33.80
2012,08,05,14,43,33.90
2012,08,05,14,44,33.90
2012,08,05,14,45,34.00
2012,08,05,14,46,34.10
2012,08,05,14,47,34.10
2012,08,05,14,48,34.10
2012,08,05,14,49,34.10
2012,08,05,14,50,34.10
2012,08,05,14,51,34.10
2012,08,05,14,52,34.10
2012,08,05,14,53,34.10
2012,08,05,14,54,34.10
2012,08,05,14,55,34.10
2012,08,05,14,56,34.10
2012,08,05,14,57,34.10
2012,08,05,14,58,34.10
2012,08,05,14,59,34.00
2012,08,05,15,00,34.00
2012,08,05,15,01,33.90
2012,08,05,15,02,33.90
2012,08,05,15,03,33.90
2012,08,05,15,04,33.90
2012,08,05,15,05,34.10
2012,08,05,15,06,34.10
2012,08,05,15,07,34.10
2012,08,05,15,08,34.10
2012,08,05,15,09,34.10
2012,08,05,15,10,34.00
2012,08,05,15,11,33.90
2012,08,05,15,12,33.90
2012,08,05,15,13,33.90
2012,08,05,15,14,33.90
2012,08,05,15,15,33.90
2012,08,05,15,16,33.90
2012,08,05,15,18,33.90
2012,08,05,15,19,33.90
2012,08,05,15,20,34.00
2012,08,05,15,22,34.10
2012,08,05,15,24,33.90
2012,08,05,15,25,33.80
2012,08,05,15,26,33.80
2012,08,05,15,28,33.70
2012,08,05,15,29,33.70
2012,08,05,15,30,33.60
2012,08,05,15,31,33.60
2012,08,05,15,32,33.60
2012,08,05,15,34,33.70
2012,08,05,15,35,33.60
2012,08,05,15,36,33.60
2012,08,05,15,38,33.50
2012,08,05,15,40,33.60
2012,08,05,15,41,33.60
2012,08,05,15,42,33.50
2012,08,05,15,43,33.40
2012,08,05,15,44,33.30
2012,08,05,15,45,33.30
2012,08,05,15,46,33.30
2012,08,05,15,47,33.20
2012,08,05,15,48,33.20
2012,08,05,15,50,33.30
2012,08,05,15,52,33.30
2012,08,05,15,53,33.20
2012,08,05,15,54,33.20
2012,08,05,15,55,33.20
2012,08,05,15,56,33.10
2012,08,05,15,57,32.90
2012,08,05,15,59,32.80
2012,08,05,16,00,32.80
2012,08,05,16,01,32.80
2012,08,05,16,02,32.70
2012,08,05,16,03,32.70
2012,08,05,16,04,32.60
2012,08,05,16,05,32.60
2012,08,05,16,07,32.50
2012,08,05,16,09,32.40
2012,08,05,16,10,32.40
2012,08,05,16,11,32.30
2012,08,05,16,13,32.30
2012,08,05,16,15,32.30
2012,08,05,16,17,32.30
2012,08,05,16,18,32.30
2012,08,05,16,19,32.30
2012,08,05,16,20,32.30
2012,08,05,16,21,32.20
2012,08,05,16,22,32.20
2012,08,05,16,23,32.30
2012,08,05,16,24,32.30
2012,08,05,16,25,32.30
2012,08,05,16,26,32.30
2012,08,05,16,27,32.20
2012,08,05,16,28,32.20
2012,08,05,16,29,32.10
2012,08,05,16,30,32.10
2012,08,05,16,31,32.10
2012,08,05,16,32,32.10
2012,08,05,16,33,32.10
2012,08,05,16,34,32.10
2012,08,05,16,35,32.10
2012,08,05,16,36,32.10
2012,08,05,16,37,32.20
2012,08,05,16,38,32.20
2012,08,05,16,39,32.30
2012,08,05,16,40,32.30
2012,08,05,16,41,32.20
2012,08,05,16,43,32.10
2012,08,05,16,44,32.10
2012,08,05,16,45,32.10
2012,08,05,16,46,32.10
2012,08,05,16,48,32.10
2012,08,05,16,49,32.10
2012,08,05,16,50,32.10
2012,08,05,16,52,32.10
2012,08,05,16,53,32.20
2012,08,05,16,54,32.20
2012,08,05,16,55,32.30
2012,08,05,16,56,32.30
2012,08,05,16,58,32.30
2012,08,05,16,59,32.20
2012,08,05,17,00,32.10
2012,08,05,17,02,32.00
2012,08,05,17,03,31.90
2012,08,05,17,05,31.70
2012,08,05,17,06,31.70
2012,08,05,17,07,31.70
2012,08,05,17,08,31.70
2012,08,05,17,09,31.70
2012,08,05,17,10,31.70
2012,08,05,17,11,31.70
2012,08,05,17,12,31.60
2012,08,05,17,13,31.70
2012,08,05,17,14,31.70
2012,08,05,17,15,31.70
2012,08,05,17,16,31.80
2012,08,05,17,17,31.70
2012,08,05,17,19,31.60
2012,08,05,17,20,31.40
2012,08,05,17,22,31.30
2012,08,05,17,23,31.30
2012,08,05,17,24,31.30
2012,08,05,17,26,31.20
2012,08,05,17,27,31.20
2012,08,05,17,28,31.10
2012,08,05,17,30,31.10
2012,08,05,17,31,31.00
2012,08,05,17,32,30.90
2012,08,05,17,33,30.90
2012,08,05,17,35,30.80
2012,08,05,17,36,30.80
2012,08,05,17,37,30.80
2012,08,05,17,38,30.80
2012,08,05,17,39,30.80
2012,08,05,17,40,30.80
2012,08,05,17,41,30.80
2012,08,05,17,43,30.70
2012,08,05,17,44,30.80
2012,08,05,17,45,30.80
2012,08,05,17,46,30.90
2012,08,05,17,47,30.90
2012,08,05,17,49,31.00
2012,08,05,17,50,31.10
2012,08,05,17,51,31.10
2012,08,05,17,53,31.20
2012,08,05,17,55,31.20
2012,08,05,17,57,31.20
2012,08,05,17,59,31.10
2012,08,05,18,00,31.10
2012,08,05,18,01,31.10
2012,08,05,18,03,31.10
2012,08,05,18,04,31.10
2012,08,05,18,05,31.10
2012,08,05,18,06,31.10
2012,08,05,18,07,31.10
2012,08,05,18,08,30.90
2012,08,05,18,09,30.80
2012,08,05,18,10,30.80
2012,08,05,18,11,30.70
2012,08,05,18,12,30.60
2012,08,05,18,13,30.60
2012,08,05,18,14,30.60
2012,08,05,18,15,30.50
2012,08,05,18,16,30.40
2012,08,05,18,17,30.40
2012,08,05,18,18,30.40
2012,08,05,18,19,30.40
2012,08,05,18,20,30.30
2012,08,05,18,21,30.30
2012,08,05,18,22,30.30
2012,08,05,18,23,30.30
2012,08,05,18,24,30.30
2012,08,05,18,25,30.30
2012,08,05,18,26,30.30
2012,08,05,18,27,30.30
2012,08,05,18,28,30.30
2012,08,05,18,29,30.30
2012,08,05,18,31,30.30
2012,08,05,18,32,30.30
2012,08,05,18,33,30.20
2012,08,05,18,34,30.20
2012,08,05,18,35,30.20
2012,08,05,18,36,30.20
2012,08,05,18,37,30.20
2012,08,05,18,38,30.20
2012,08,05,18,39,30.20
2012,08,05,18,41,30.10
2012,08,05,18,42,30.10
2012,08,05,18,43,30.10
2012,08,05,18,44,30.10
2012,08,05,18,45,30.10
2012,08,05,18,47,30.20
2012,08,05,18,48,30.10
2012,08,05,18,49,30.10
2012,08,05,18,50,30.10
2012,08,05,18,52,30.10
2012,08,05,18,53,30.20
2012,08,05,18,55,30.20
2012,08,05,18,56,30.20
2012,08,05,18,57,30.20
2012,08,05,18,59,30.20
2012,08,05,19,00,30.20
2012,08,05,19,02,30.10
2012,08,05,19,03,30.10
2012,08,05,19,04,30.10
2012,08,05,19,05,30.10
2012,08,05,19,06,30.10
2012,08,05,19,07,30.00
2012,08,05,19,08,29.90
2012,08,05,19,09,29.90
2012,08,05,19,10,29.90
2012,08,05,19,11,29.90
2012,08,05,19,13,29.80
2012,08,05,19,14,29.80
2012,08,05,19,15,29.80
2012,08,05,19,16,29.80
2012,08,05,19,17,29.80
2012,08,05,19,19,29.80
2012,08,05,19,20,29.80
2012,08,05,19,21,29.80
2012,08,05,19,22,29.80
2012,08,05,19,23,29.80
2012,08,05,19,25,29.70
2012,08,05,19,26,29.70
2012,08,05,19,27,29.70
2012,08,05,19,28,29.70
2012,08,05,19,29,29.70
2012,08,05,19,30,29.70
2012,08,05,19,31,29.60
2012,08,05,19,32,29.60
2012,08,05,19,34,29.60
2012,08,05,19,36,29.60
2012,08,05,19,37,29.60
2012,08,05,19,38,29.50
2012,08,05,19,39,29.40
2012,08,05,19,40,29.40
2012,08,05,19,41,29.40
2012,08,05,19,42,29.30
2012,08,05,19,43,29.30
2012,08,05,19,44,29.20
2012,08,05,19,46,29.10
2012,08,05,19,47,29.00
2012,08,05,19,48,28.90
2012,08,05,19,49,28.90
2012,08,05,19,50,28.80
2012,08,05,19,51,28.70
2012,08,05,19,52,28.70
2012,08,05,19,53,28.60
2012,08,05,19,54,28.50
2012,08,05,19,55,28.40
2012,08,05,19,56,28.30
2012,08,05,19,57,28.20
2012,08,05,19,58,28.10
2012,08,05,19,59,28.10
2012,08,05,20,00,28.00
2012,08,05,20,01,27.90
2012,08,05,20,02,27.90
2012,08,05,20,03,27.80
2012,08,05,20,04,27.70
2012,08,05,20,05,27.70
2012,08,05,20,06,27.60
2012,08,05,20,07,27.50
2012,08,05,20,08,27.40
2012,08,05,20,10,27.20
2012,08,05,20,11,27.10
2012,08,05,20,12,27.10
2012,08,05,20,13,27.00
2012,08,05,20,15,26.80
2012,08,05,20,17,26.70
2012,08,05,20,19,26.60
2012,08,05,20,20,26.50
2012,08,05,20,22,26.30
2012,08,05,20,23,26.30
2012,08,05,20,24,26.30
2012,08,05,20,26,26.10
2012,08,05,20,27,26.10
2012,08,05,20,29,25.90
2012,08,05,20,30,25.90
2012,08,05,20,31,25.80